Weather reports worldwide

Advertisment
Murcia/San Javier, Spain (8433): temperature & dewpoint: 10.07.2018 18:00:00 - 16.07.2018 18:00:00 (CEST)Murcia/San Javier, Spain (8433): wind speed: 10.07.2018 18:00:00 - 16.07.2018 18:00:00 (CEST)Murcia/San Javier, Spain (8433): wind direction: 10.07.2018 18:00:00 - 16.07.2018 18:00:00 (CEST)Murcia/San Javier, Spain (8433): reduced air pressure: 10.07.2018 18:00:00 - 16.07.2018 18:00:00 (CEST)Murcia/San Javier, Spain (8433): visibility: 10.07.2018 18:00:00 - 16.07.2018 18:00:00 (CEST)
Date & Time tt [°C] td [°C] ff [km/h] ff [kn] dd ppp [hPa] vv [km]
16.07.2018 18:00:00 30,3 14,9 29 16 SSW 1015,3 -
16.07.2018 17:00:00 31,0 15,0 34 18 SSW 1015,4 15
16.07.2018 16:00:00 31,6 14,1 35 19 SSW 1015,6 -
16.07.2018 15:00:00 32,3 14,9 29 16 S 1016,0 -
16.07.2018 14:00:00 33,5 13,2 24 13 S 1016,6 25
16.07.2018 13:00:00 33,8 8,2 15 8 W 1016,7 -
16.07.2018 12:00:00 31,9 8,8 28 15 W 1016,9 -
16.07.2018 11:00:00 30,3 9,2 24 13 WNW 1017,1 25
16.07.2018 10:00:00 29,2 9,4 24 13 W 1017,0 -
16.07.2018 09:00:00 28,0 9,8 22 12 W 1016,6 -
16.07.2018 08:00:00 26,5 9,4 18 10 W 1016,1 25
16.07.2018 07:00:00 24,3 9,5 15 8 WNW 1015,4 -
16.07.2018 06:00:00 25,4 9,2 16 9 W 1014,9 -
16.07.2018 05:00:00 26,6 9,4 22 12 WNW 1014,1 -
16.07.2018 04:00:00 26,8 8,7 16 9 W 1013,9 -
16.07.2018 03:00:00 26,3 10,2 16 9 W 1013,6 -
16.07.2018 02:00:00 25,5 17,4 11 6 W 1013,3 -
16.07.2018 01:00:00 25,8 17,4 11 6 WSW 1013,5 -
16.07.2018 00:00:00 25,9 16,7 15 8 W 1012,7 -
15.07.2018 23:00:00 25,7 17,1 11 6 W 1011,8 18
15.07.2018 22:00:00 25,6 19,0 22 12 S 1011,5 -
15.07.2018 21:00:00 26,3 17,6 18 10 SW 1011,7 -
15.07.2018 20:00:00 28,5 17,3 28 15 SSW 1012,1 18
15.07.2018 19:00:00 32,9 15,3 21 11 SSW 1011,6 -
15.07.2018 18:00:00 32,7 16,4 13 7 SSW 1011,9 -
15.07.2018 17:00:00 32,3 19,6 18 10 S 1013,0 18
15.07.2018 16:00:00 31,3 20,6 13 7 SE 1012,6 -
15.07.2018 15:00:00 30,4 20,7 28 15 SSE 1013,5 -
15.07.2018 14:00:00 31,5 20,2 26 14 SSE 1014,4 18
15.07.2018 13:00:00 31,4 22,1 18 10 SE 1014,7 -
15.07.2018 12:00:00 31,3 20,2 13 7 SE 1015,2 -
15.07.2018 11:00:00 31,1 16,3 8 4 NNW 1015,5 18
15.07.2018 10:00:00 28,3 20,1 11 6 W 1015,9 -
15.07.2018 09:00:00 25,7 18,4 8 4 WSW 1016,2 -
15.07.2018 08:00:00 22,5 17,2 8 4 W 1016,0 18
15.07.2018 07:00:00 21,2 17,6 8 4 WNW 1015,4 -
15.07.2018 06:00:00 23,1 19,9 9 5 SSW 1015,4 -
15.07.2018 05:00:00 22,4 18,2 0 0 N 1015,2 -
15.07.2018 04:00:00 22,6 17,5 9 5 NW 1014,9 -
15.07.2018 03:00:00 23,4 17,6 5 3 WNW 1015,4 -
15.07.2018 02:00:00 25,4 19,7 11 6 SSE 1015,8 -
15.07.2018 01:00:00 25,4 19,0 11 6 S 1016,4 -
15.07.2018 00:00:00 25,9 16,4 16 9 S 1016,6 -
14.07.2018 23:00:00 25,4 18,6 13 7 SW 1016,4 10
14.07.2018 22:00:00 25,7 20,0 16 9 SW 1015,9 -
14.07.2018 21:00:00 28,0 21,0 21 11 S 1015,3 -
14.07.2018 20:00:00 30,3 20,7 21 11 S 1014,8 9
14.07.2018 19:00:00 30,6 21,7 22 12 SSE 1014,9 -
14.07.2018 18:00:00 31,2 21,8 24 13 SSE 1015,3 -
14.07.2018 17:00:00 31,2 21,9 26 14 SE 1015,7 9
14.07.2018 16:00:00 31,8 21,6 28 15 SSE 1016,0 -
14.07.2018 15:00:00 32,6 22,2 24 13 SSE 1016,4 -
14.07.2018 14:00:00 33,0 20,3 18 10 SSE 1017,1 10
14.07.2018 13:00:00 31,7 22,7 21 11 SE 1017,4 -
14.07.2018 12:00:00 30,2 23,1 15 8 ESE 1017,6 -
14.07.2018 11:00:00 30,3 22,2 11 6 S 1017,6 -
14.07.2018 10:00:00 28,5 22,8 9 5 S 1017,6 -
14.07.2018 09:00:00 26,3 22,4 8 4 SW 1017,5 -
14.07.2018 08:00:00 23,6 21,1 9 5 W 1017,0 8
14.07.2018 07:00:00 22,8 20,9 8 4 WSW 1016,5 -
14.07.2018 06:00:00 23,0 21,0 5 3 WSW 1016,0 -
14.07.2018 05:00:00 23,4 21,3 9 5 WNW 1015,9 -
14.07.2018 04:00:00 24,2 22,1 8 4 NNW 1016,1 -
14.07.2018 03:00:00 24,4 22,1 5 3 NW 1016,2 -
14.07.2018 02:00:00 24,6 22,1 5 3 NW 1016,5 -
14.07.2018 01:00:00 25,0 22,3 8 4 WNW 1016,7 -
14.07.2018 00:00:00 25,6 22,1 4 2 WNW 1016,9 -
13.07.2018 23:00:00 25,9 22,8 8 4 SSE 1016,4 15
13.07.2018 22:00:00 26,1 23,2 9 5 ESE 1015,7 -
13.07.2018 21:00:00 26,5 23,5 13 7 E 1015,1 -
13.07.2018 20:00:00 27,6 23,8 21 11 ENE 1015,0 18
13.07.2018 19:00:00 28,4 24,1 22 12 ENE 1014,6 -
13.07.2018 18:00:00 29,3 24,0 21 11 ENE 1014,8 -
13.07.2018 17:00:00 29,5 24,3 18 10 ENE 1014,8 30
13.07.2018 16:00:00 28,9 23,8 28 15 E 1015,0 -
13.07.2018 15:00:00 - - - - - - -
13.07.2018 14:00:00 30,0 23,2 28 15 NE 1015,3 15
13.07.2018 13:00:00 29,6 23,5 29 16 NE 1015,4 -
13.07.2018 12:00:00 29,7 22,4 24 13 NE 1015,5 -
13.07.2018 11:00:00 29,4 22,9 11 6 E 1015,1 15
13.07.2018 10:00:00 28,5 22,0 4 2 WSW 1014,8 -
13.07.2018 09:00:00 26,8 22,6 9 5 NNW 1014,3 -
13.07.2018 08:00:00 26,0 23,0 22 12 NE 1014,1 9
13.07.2018 07:00:00 25,6 22,5 18 10 NE 1014,5 -
13.07.2018 06:00:00 25,5 22,8 16 9 NE 1014,3 -
13.07.2018 05:00:00 25,6 23,3 28 15 NE 1013,2 -
13.07.2018 04:00:00 25,0 22,5 13 7 NNW 1014,2 -
13.07.2018 03:00:00 25,5 23,2 22 12 NNE 1014,1 -
13.07.2018 02:00:00 25,3 22,2 15 8 NNE 1015,1 -
13.07.2018 01:00:00 25,5 22,3 13 7 NE 1015,4 -
13.07.2018 00:00:00 25,7 22,4 8 4 ENE 1015,3 -
12.07.2018 23:00:00 25,7 22,4 9 5 NE 1015,0 8
12.07.2018 22:00:00 25,8 22,9 11 6 E 1014,1 -
12.07.2018 21:00:00 26,4 22,7 11 6 ENE 1013,3 -
12.07.2018 20:00:00 27,7 22,9 11 6 E 1013,4 8
12.07.2018 19:00:00 28,4 22,6 15 8 E 1012,7 -
12.07.2018 18:00:00 28,6 23,5 15 8 E 1012,8 -
12.07.2018 17:00:00 28,9 23,5 15 8 E 1013,0 8
12.07.2018 16:00:00 29,4 23,2 15 8 E 1013,3 -
12.07.2018 15:00:00 29,3 22,7 16 9 ESE 1013,6 -
12.07.2018 14:00:00 29,4 22,6 15 8 ESE 1014,1 10
12.07.2018 13:00:00 29,1 22,5 16 9 ESE 1014,3 -
12.07.2018 12:00:00 29,3 22,2 13 7 E 1014,5 -
12.07.2018 11:00:00 28,5 22,3 11 6 E 1014,3 9
12.07.2018 10:00:00 27,7 22,3 11 6 E 1014,3 -
12.07.2018 09:00:00 25,5 21,9 8 4 NNW 1014,0 -
12.07.2018 08:00:00 24,0 21,5 9 5 NNW 1013,3 6
12.07.2018 07:00:00 23,4 21,1 8 4 NW 1012,9 -
12.07.2018 06:00:00 23,7 20,8 9 5 NW 1012,5 -
12.07.2018 05:00:00 25,0 21,5 21 11 NNE 1012,5 -
12.07.2018 04:00:00 24,7 21,8 22 12 N 1012,4 -
12.07.2018 03:00:00 24,5 21,7 18 10 NNE 1012,4 -
12.07.2018 02:00:00 24,4 21,3 16 9 NE 1012,6 -
12.07.2018 01:00:00 24,1 20,2 11 6 NE 1012,6 -
12.07.2018 00:00:00 24,3 20,0 9 5 ENE 1012,3 -
11.07.2018 23:00:00 24,9 19,9 11 6 SE 1011,7 20
11.07.2018 22:00:00 25,8 19,4 15 8 SSE 1011,1 -
11.07.2018 21:00:00 27,3 19,6 16 9 SSE 1010,7 -
11.07.2018 20:00:00 29,2 20,4 16 9 SSE 1010,8 18
11.07.2018 19:00:00 29,1 22,3 22 12 SE 1010,5 -
11.07.2018 18:00:00 30,0 23,0 15 8 ESE 1011,1 -
11.07.2018 17:00:00 30,2 19,6 13 7 ESE 1012,1 18
11.07.2018 16:00:00 29,8 22,5 13 7 SE 1012,7 -
11.07.2018 15:00:00 29,3 22,1 11 6 ESE 1013,1 -
11.07.2018 14:00:00 29,0 22,1 11 6 ESE 1013,7 9
11.07.2018 13:00:00 28,3 22,5 15 8 E 1013,6 -
11.07.2018 12:00:00 28,1 22,5 13 7 ENE 1013,9 -
11.07.2018 11:00:00 27,7 22,6 16 9 ENE 1013,8 9
11.07.2018 10:00:00 27,6 21,2 8 4 ENE 1013,8 -
11.07.2018 09:00:00 25,8 20,6 8 4 N 1013,6 -
11.07.2018 08:00:00 23,0 20,3 4 2 WNW 1013,5 4,8
11.07.2018 07:00:00 21,2 19,5 8 4 WNW 1013,2 -
11.07.2018 06:00:00 21,8 19,9 5 3 W 1012,9 -
11.07.2018 05:00:00 22,3 20,2 5 3 W 1012,9 -
11.07.2018 04:00:00 23,0 20,9 9 5 W 1013,1 -
11.07.2018 03:00:00 23,3 21,0 13 7 SW 1013,3 -
11.07.2018 02:00:00 23,6 20,9 15 8 SW 1013,8 -
11.07.2018 01:00:00 24,2 21,3 15 8 SW 1014,1 -
11.07.2018 00:00:00 24,4 20,5 15 8 SSW 1014,1 -
10.07.2018 23:00:00 25,7 18,9 21 11 S 1014,0 30
10.07.2018 22:00:00 25,7 18,1 13 7 SSW 1013,5 -
10.07.2018 21:00:00 28,0 17,5 16 9 SSW 1013,2 -
10.07.2018 20:00:00 30,3 16,3 16 9 SSW 1013,1 25
10.07.2018 19:00:00 31,1 18,1 24 13 SSW 1013,2 -
10.07.2018 18:00:00 32,4 19,2 22 12 SSW 1013,8 -

tt = temperature
td = dewpoint
ff = wind speed
dd = wind direction
ppp = reduced air pressure
vv = visibility

Next stations